Wrangell, AK

9:32 PM AKST on February 10, 2016 (GMT -0900)
Wrangell

Weather History for PAWG - May, 2013

Change the Weather History Date:

Friday, May 3, 2013

  Actual Average Record
Temperature  
Mean Temperature 48 °F -  
Max Temperature 53 °F 53 °F 68 °F (1991)
Min Temperature 42 °F 37 °F 30 °F (1962)
Degree Days  
Heating Degree Days 18    
Moisture  
Dew Point 42 °F    
Average Humidity 81    
Maximum Humidity 93    
Minimum Humidity 58    
Precipitation  
Precipitation 0.06 in - - ()
Sea Level Pressure  
Sea Level Pressure 30.54 in    
Wind  
Wind Speed 4 mph (ESE)    
Max Wind Speed 17 mph    
Max Gust Speed 22 mph    
Visibility 9 miles    
Events      
Averages and records for this station are not official NWS values.
T = Trace of Precipitation, MM = Missing Value Source: NWS Daily Summary

Daily Weather History Graph

Daily Weather History Graph

Search for Another Location

Airport or City:

Trip Planner

Search our weather history database for the weather conditions in past years. The results will help you decide how hot, cold, wet, or windy it might be!

Date:

Astronomy

May. 03, 2013 Rise Set
Actual Time 4:58 AM AKDT 8:35 PM AKDT
Civil Twilight 4:11 AM AKDT 9:22 PM AKDT
Nautical Twilight 3:06 AM AKDT 10:28 PM AKDT
Astronomical Twilight 1:18 AM AKDT 12:13 AM AKDT
Moon 2:38 AM AKDT (5/3) 1:31 PM AKDT (5/3)
Length of Visible Light 17h 10m
Length of Day
15h 37m
Waning Crescent, 35% of the Moon is Illuminated
May 3
Waning Crescent
May 9
New
May 17
First Quarter
May 24
Full
May 31
Last Quarter

Hourly Weather History & Observations

Time (AKDT) Temp. Windchill Dew Point Humidity Pressure Visibility Wind Dir Wind Speed Gust Speed Precip Events Conditions
12:16 AM 44.6 °F - 41.0 °F 87% 30.54 in 10.0 mi Calm Calm - N/A   Overcast
12:36 AM 44.6 °F - 41.0 °F 87% 30.54 in 10.0 mi Calm Calm - N/A   Overcast
12:56 AM 44.6 °F - 41.0 °F 87% 30.56 in 10.0 mi Calm Calm - N/A   Overcast
1:16 AM 44.6 °F - 41.0 °F 87% 30.56 in 10.0 mi Calm Calm - N/A   Overcast
1:36 AM 44.6 °F - 41.0 °F 87% 30.56 in 10.0 mi Calm Calm - N/A   Overcast
1:56 AM 44.6 °F 43.1 °F 41.0 °F 87% 30.57 in 10.0 mi East 3.5 mph - N/A   Mostly Cloudy
2:16 AM 42.8 °F 39.3 °F 39.2 °F 87% 30.57 in 10.0 mi SE 5.8 mph - N/A   Overcast
2:36 AM 42.8 °F 40.1 °F 39.2 °F 87% 30.57 in 10.0 mi SE 4.6 mph - N/A   Overcast
2:56 AM 42.8 °F - 39.2 °F 87% 30.59 in 10.0 mi Calm Calm - N/A   Overcast
3:16 AM 42.8 °F - 41.0 °F 93% 30.59 in 10.0 mi Calm Calm - N/A   Overcast
3:36 AM 42.8 °F 41.1 °F 39.2 °F 87% 30.59 in 10.0 mi SE 3.5 mph - N/A   Overcast
3:56 AM 42.8 °F 38.6 °F 39.2 °F 87% 30.58 in 10.0 mi SE 6.9 mph - N/A   Overcast
4:16 AM 42.8 °F 39.3 °F 39.2 °F 87% 30.58 in 10.0 mi SSE 5.8 mph - N/A   Overcast
4:36 AM 42.8 °F 40.1 °F 39.2 °F 87% 30.58 in 10.0 mi ESE 4.6 mph - N/A   Overcast
4:56 AM 42.8 °F - 39.2 °F 87% 30.59 in 10.0 mi Calm Calm - N/A   Overcast
5:16 AM 42.8 °F 39.3 °F 39.2 °F 87% 30.58 in 10.0 mi SE 5.8 mph - N/A   Overcast
5:36 AM 42.8 °F 39.3 °F 39.2 °F 87% 30.58 in 3.0 mi SE 5.8 mph - N/A   Overcast
5:56 AM 42.8 °F 41.1 °F 39.2 °F 87% 30.58 in 0.2 mi SE 3.5 mph - N/A   Overcast
6:16 AM 42.8 °F - 39.2 °F 87% 30.59 in 0.2 mi Calm Calm - N/A   Overcast
6:36 AM 42.8 °F 40.1 °F 39.2 °F 87% 30.59 in 0.2 mi ESE 4.6 mph - N/A   Overcast
6:56 AM 42.8 °F 40.1 °F 39.2 °F 87% 30.59 in 7.0 mi ENE 4.6 mph - N/A   Overcast
7:16 AM 42.8 °F 39.3 °F 41.0 °F 93% 30.59 in 7.0 mi ENE 5.8 mph - N/A   Overcast
7:36 AM 42.8 °F 38.0 °F 39.2 °F 87% 30.60 in 7.0 mi ENE 8.1 mph - N/A   Overcast
7:56 AM 42.8 °F 40.1 °F 41.0 °F 93% 30.61 in 7.0 mi East 4.6 mph - N/A   Overcast
8:16 AM 44.6 °F 41.4 °F 41.0 °F 87% 30.61 in 7.0 mi East 5.8 mph - N/A   Overcast
8:36 AM 44.6 °F 42.2 °F 41.0 °F 87% 30.61 in 7.0 mi ESE 4.6 mph - N/A   Overcast
8:56 AM 44.6 °F 43.1 °F 42.8 °F 93% 30.60 in 10.0 mi East 3.5 mph - N/A   Mostly Cloudy
9:16 AM 44.6 °F 43.1 °F 41.0 °F 87% 30.60 in 10.0 mi ESE 3.5 mph - N/A   Mostly Cloudy
9:36 AM 44.6 °F 42.2 °F 41.0 °F 87% 30.59 in 10.0 mi SE 4.6 mph - N/A   Mostly Cloudy
9:56 AM 46.4 °F 44.3 °F 42.8 °F 87% 30.59 in 10.0 mi ESE 4.6 mph - N/A   Mostly Cloudy
10:16 AM 46.4 °F 44.3 °F 42.8 °F 87% 30.58 in 10.0 mi SE 4.6 mph - N/A   Mostly Cloudy
10:36 AM 46.4 °F 43.5 °F 42.8 °F 87% 30.58 in 10.0 mi SE 5.8 mph - N/A   Mostly Cloudy
10:56 AM 48.2 °F - 42.8 °F 82% 30.57 in 10.0 mi Calm Calm - N/A   Mostly Cloudy
11:16 AM 46.4 °F 44.3 °F 42.8 °F 87% 30.57 in 10.0 mi NNW 4.6 mph - N/A   Mostly Cloudy
11:36 AM 48.2 °F - 42.8 °F 82% 30.57 in 10.0 mi North 4.6 mph - N/A   Mostly Cloudy
11:56 AM 50.0 °F - 42.8 °F 76% 30.56 in 10.0 mi ENE 3.5 mph - N/A   Mostly Cloudy
12:16 PM 50.0 °F - 42.8 °F 76% 30.55 in 10.0 mi NE 4.6 mph - N/A   Mostly Cloudy
12:36 PM 51.8 °F - 42.8 °F 71% 30.55 in 10.0 mi NNW 3.5 mph - N/A   Overcast
12:56 PM 51.8 °F - 42.8 °F 71% 30.55 in 10.0 mi SW 10.4 mph - N/A   Overcast
1:16 PM 53.6 °F - 42.8 °F 67% 30.55 in 10.0 mi SSE 3.5 mph - N/A   Overcast
1:36 PM 51.8 °F - 42.8 °F 71% 30.54 in 10.0 mi NNE 5.8 mph - N/A   Overcast
1:56 PM 53.6 °F - 42.8 °F 67% 30.54 in 10.0 mi South 11.5 mph 17.3 mph N/A   Scattered Clouds
2:16 PM 53.6 °F - 42.8 °F 67% 30.54 in 10.0 mi SSW 10.4 mph - N/A   Scattered Clouds
2:36 PM 53.6 °F - 41.0 °F 62% 30.54 in 10.0 mi SSW 11.5 mph 17.3 mph N/A   Scattered Clouds
2:56 PM 53.6 °F - 39.2 °F 58% 30.54 in 10.0 mi SSW 9.2 mph - N/A   Scattered Clouds
3:16 PM 53.6 °F - 41.0 °F 62% 30.54 in 10.0 mi SW 5.8 mph - N/A   Mostly Cloudy
3:36 PM 53.6 °F - 42.8 °F 67% 30.54 in 10.0 mi SW 5.8 mph - N/A   Mostly Cloudy
3:56 PM 53.6 °F - 42.8 °F 67% 30.53 in 10.0 mi SW 4.6 mph - N/A   Overcast
4:16 PM 53.6 °F - 42.8 °F 67% 30.51 in 10.0 mi Calm Calm - N/A   Overcast
4:36 PM 53.6 °F - 42.8 °F 67% 30.50 in 10.0 mi East 3.5 mph - N/A   Overcast
4:56 PM 53.6 °F - 44.6 °F 72% 30.49 in 10.0 mi ESE 5.8 mph - N/A   Scattered Clouds
5:16 PM 53.6 °F - 42.8 °F 67% 30.48 in 10.0 mi ESE 10.4 mph - N/A   Scattered Clouds
5:36 PM 53.6 °F - 42.8 °F 67% 30.48 in 10.0 mi ESE 8.1 mph - N/A   Scattered Clouds
5:56 PM 51.8 °F - 42.8 °F 71% 30.47 in 10.0 mi East 9.2 mph - N/A   Mostly Cloudy
6:16 PM 51.8 °F - 42.8 °F 71% 30.47 in 10.0 mi East 8.1 mph - N/A   Mostly Cloudy
6:36 PM 51.8 °F - 42.8 °F 71% 30.47 in 10.0 mi SSE 4.6 mph - N/A   Mostly Cloudy
6:56 PM 51.8 °F - 42.8 °F 71% 30.47 in 10.0 mi East 9.2 mph - N/A   Overcast
7:16 PM 50.0 °F - 42.8 °F 76% 30.47 in 10.0 mi East 6.9 mph - N/A   Overcast
7:36 PM 48.2 °F - 42.8 °F 82% 30.47 in 10.0 mi Calm Calm - N/A   Overcast
7:56 PM 48.2 °F - 42.8 °F 82% 30.46 in 10.0 mi SE 9.2 mph - N/A   Overcast
8:16 PM 48.2 °F - 42.8 °F 82% 30.47 in 10.0 mi SE 9.2 mph - N/A   Overcast
8:36 PM 48.2 °F - 42.8 °F 82% 30.47 in 10.0 mi SSE 8.1 mph - N/A   Overcast
8:56 PM 48.2 °F - 42.8 °F 82% 30.47 in 10.0 mi SE 5.8 mph - 0.01 in   Overcast
9:16 PM 46.4 °F 42.9 °F 42.8 °F 87% 30.47 in 10.0 mi ESE 6.9 mph - N/A   Overcast
9:36 PM 46.4 °F 41.5 °F 42.8 °F 87% 30.46 in 10.0 mi East 10.4 mph - 0.02 in   Overcast
9:56 PM 48.2 °F - 42.8 °F 82% 30.46 in 10.0 mi ESE 10.4 mph - 0.03 in   Overcast
10:16 PM 46.4 °F 42.9 °F 42.8 °F 87% 30.47 in 10.0 mi SE 6.9 mph - N/A   Overcast
10:36 PM 46.4 °F 41.1 °F 42.8 °F 87% 30.46 in 10.0 mi East 11.5 mph - N/A   Overcast
10:56 PM 46.4 °F 40.1 °F 42.8 °F 87% 30.45 in 10.0 mi East 15.0 mph - N/A   Overcast
11:16 PM 46.4 °F 40.7 °F 42.8 °F 87% 30.45 in 10.0 mi East 12.7 mph - 0.01 in   Overcast
11:36 PM 46.4 °F 39.8 °F 42.8 °F 87% 30.44 in 10.0 mi East 16.1 mph 19.6 mph 0.02 in   Overcast
11:56 PM 46.4 °F 39.5 °F 42.8 °F 87% 30.44 in 10.0 mi East 17.3 mph 21.9 mph 0.02 in   Overcast